Regional Weather Roundup
Issued by NWS Portland, ME

Current Version | Previous Version | Text Only | Print | Product List | Glossary Off
Versions: 1 2 3 4 5 6 7 8 9 10 11 12 13 14 15 16 17 18 19 20 21 22 23 24 25 26 27 28 29 30 31 32 33 34 35 36 37 38 39 40 41 42 43 44 45 46 47 48 49 50
013 ASUS41 KGYX 172305 RWRGYX WEATHER ROUNDUP FOR MAINE AND NEW HAMPSHIRE NATIONAL WEATHER SERVICE GRAY ME 700 PM EDT SUN JUN 17 2018 MEZ002-005-006-010-012-015-018-020-021-024-026-027-029-180000- MAINE CITY SKY/WX TMP DP RH WIND PRES REMARKS PORTLAND FAIR 58 53 84 E10 30.09F SANFORD FAIR 63 54 72 SE6 30.08F BAR HARBOR FAIR 58 48 69 S14 30.14R WISCASSET FAIR 59 52 77 VRB5 30.11S ROCKLAND FAIR 55 50 83 E9 30.12S FRYEBURG FAIR 75 57 53 SE7 30.05R LEWISTONAUBURN FAIR 64 54 69 S8 30.07F AUGUSTA FAIR 65 52 62 S12 30.08R WATERVILLE FAIR 66 54 65 VRB7 30.01F BANGOR CLOUDY 64 50 60 SE12 30.08F GREENVILLE N/A 66 55 67 SE12G20 30.03S MILLINOCKET PTSUNNY 66 46 48 S3 30.06S HOULTON CLOUDY 68 54 60 S8 30.03S PRESQUE ISLE LGT RAIN 65 55 70 SE8 30.00F FRENCHVILLE LGT RAIN 62 54 74 SE10 29.98F CARIBOU LGT RAIN 67 52 58 S7 29.99F $$ NHZ002-005-008-009-011-012-014-180000- NEW HAMPSHIRE CITY SKY/WX TMP DP RH WIND PRES REMARKS PORTSMOUTH PTSUNNY 62 56 81 E5 30.07S ROCHESTER FAIR 68 55 63 SE6 30.07S NASHUA FAIR 80 52 37 SE9G20 30.06R MANCHESTER PTSUNNY 81 56 42 SE8 30.04R CONCORD FAIR 78 55 44 SE6 30.04S LACONIA FAIR 80 55 42 S13G18 30.04S PLYMOUTH FAIR 83 50 31 CALM 30.02S BERLIN FAIR 82 51 34 CALM 30.02F WHITEFIELD FAIR 83 48 29 W5 30.02F JAFFREY FAIR 83 47 28 S3 30.08S KEENE FAIR 85 59 41 CALM 30.04S LEBANON FAIR 85 52 32 SW3 30.02S MT WASHINGTON PTSUNNY 59 45 58 SW18 N/A $$ VTZ005-007-008-180000- VERMONT CITY SKY/WX TMP DP RH WIND PRES REMARKS ST JOHNSBURY N/A 83 54 36 MISG 29.98F MONTPELIER FAIR 79 49 34 S6 30.06F BURLINGTON PTSUNNY 83 50 31 S7 29.97F $$ MAZ007-012-024-CTZ003-RIZ002-NYZ038-NYZ072-180000- SOUTHERN NEW ENGLAND AND NY CITY SKY/WX TMP DP RH WIND PRES REMARKS BOSTON CLOUDY 65 57 75 E9 30.07S WORCESTER FAIR 82 51 34 W5 30.08S NANTUCKET FAIR 65 60 84 S5 30.10S PROVIDENCE PTSUNNY 80 54 40 S12 30.07R HARTFORD PTSUNNY 87 55 33 S12 30.03S ALBANY PTSUNNY 86 51 29 SE5 30.02F NEW YORK CITY PTSUNNY 84 52 33 S14 30.05S $$ ANZ081-ANZ082-ANZ150-NHZ014-MEZ023>029-180000- COASTAL MARINE OBSERVATIONS STATION/POSITION TIME TEMP WIND PRES WAVE AIR SEA DIR/SP/G HT/PER (UTC) (F) (DEG/KT/KT) (MB) (FT/S) MOUNT DESERT ROC 2300 54 120/ 11/ 12 1020.5F MATINICUS ROCK 2200 57 100/ 10/ 11 1019.6R ISLE OF SHOALS 2200 58 60/ 6/ 6 1018.4S JEFFREYS LEDGE 2236 60 N/A 1/ 8 $$ .............KEY.............. WCI - WIND CHILL TC - TEMPERATURE IN CELSIUS VSB - VISIBILITY IN MILES HX - HEAT INDEX FAIR- INDICATES FEW OR NO CLOUDS BELOW 12,000 FT, WITH NO SIGNIFICANT WEATHER AND/OR OBSTRUCTIONS TO VISIBILITY.

USA.gov is the U.S. government's official web portal to all federal, state and local government web resources and services.